| time (UTC) | temp C | wind direction | speed KPH | gust KPH | rain 1hr cm | rain 24hr cm | rain mn cm | humidity % | barometer mb |
| 20260510154600 | 15 | 359 | 4.8 | 11.3 | 0.00 | 0.00 | 0.00 | 28 | 1021.2 |
| 20260510154056 | 16 | 349 | 14.5 | 20.9 | 0.00 | 0.00 | 0.00 | 29 | 1021.4 |
| 20260510153552 | 16 | 343 | 14.5 | 20.9 | 0.00 | 0.00 | 0.00 | 29 | 1021.1 |
| 20260510153049 | 15 | 282 | 4.8 | 11.3 | 0.00 | 0.00 | 0.00 | 30 | 1021.1 |
| 20260510152545 | 15 | 286 | 12.9 | 14.5 | 0.00 | 0.00 | 0.00 | 31 | 1021.0 |
| 20260510152042 | 15 | 334 | 11.3 | 12.9 | 0.00 | 0.00 | 0.00 | 30 | 1020.8 |
| 20260510151538 | 15 | 355 | 1.6 | 3.2 | 0.00 | 0.00 | 0.00 | 32 | 1021.0 |
| 20260510151036 | 15 | 53 | 8.0 | 9.7 | 0.00 | 0.00 | 0.00 | 32 | 1020.9 |
| 20260510150531 | 15 | 326 | 14.5 | 16.1 | 0.00 | 0.00 | 0.00 | 32 | 1020.9 |
| 20260510150027 | 15 | 20 | 8.0 | 11.3 | 0.00 | 0.00 | 0.00 | 32 | 1020.9 |
| 20260510145524 | 15 | 326 | 3.2 | 4.8 | 0.00 | 0.00 | 0.00 | 34 | 1020.7 |
| 20260510145020 | 15 | 286 | 3.2 | 4.8 | 0.00 | 0.00 | 0.00 | 35 | 1020.8 |
| 20260510144517 | 15 | 21 | 3.2 | 3.2 | 0.00 | 0.00 | 0.00 | 35 | 1020.8 |
| 20260510144013 | 15 | 313 | 4.8 | 6.4 | 0.00 | 0.00 | 0.00 | 35 | 1020.8 |
| 20260510143509 | 14 | 310 | 6.4 | 9.7 | 0.00 | 0.00 | 0.00 | 34 | 1020.8 |
| 20260510143005 | 15 | 207 | 3.2 | 3.2 | 0.00 | 0.00 | 0.00 | 35 | 1020.9 |
| 20260510142502 | 15 | 334 | 4.8 | 6.4 | 0.00 | 0.00 | 0.00 | 35 | 1020.9 |
| 20260510141959 | 14 | 325 | 1.6 | 1.6 | 0.00 | 0.00 | 0.00 | 40 | 1020.9 |
| 20260510141455 | 13 | 345 | 1.6 | 1.6 | 0.00 | 0.00 | 0.00 | 40 | 1020.7 |
| 20260510140953 | 13 | 4 | 6.4 | 6.4 | 0.00 | 0.00 | 0.00 | 40 | 1020.8 |
| 20260510140449 | 13 | 344 | 3.2 | 3.2 | 0.00 | 0.00 | 0.00 | 40 | 1020.9 |
| 20260510135948 | 13 | 341 | 6.4 | 9.7 | 0.00 | 0.00 | 0.00 | 42 | 1020.7 |
| 20260510135444 | 13 | 349 | 3.2 | 3.2 | 0.00 | 0.00 | 0.00 | 42 | 1020.7 |
| 20260510134941 | 13 | 8 | 1.6 | 1.6 | 0.00 | 0.00 | 0.00 | 42 | 1020.7 |
| 20260510134438 | 12 | 337 | 1.6 | 1.6 | 0.00 | 0.00 | 0.00 | 42 | 1020.8 |
| 20260510133935 | 12 | 19 | 3.2 | 3.2 | 0.00 | 0.00 | 0.00 | 44 | 1020.8 |
| 20260510133431 | 11 | 346 | 1.6 | 1.6 | 0.00 | 0.00 | 0.00 | 45 | 1020.7 |
| 20260510132926 | 11 | 289 | 1.6 | 3.2 | 0.00 | 0.00 | 0.00 | 46 | 1020.8 |
| 20260510132424 | 11 | 318 | 1.6 | 1.6 | 0.00 | 0.00 | 0.00 | 47 | 1020.8 |
| 20260510131921 | 10 | 338 | 3.2 | 3.2 | 0.00 | 0.00 | 0.00 | 48 | 1020.8 |
| 20260510131418 | 10 | 330 | 3.2 | 3.2 | 0.00 | 0.00 | 0.00 | 48 | 1020.5 |
| 20260510130915 | 10 | 349 | 3.2 | 4.8 | 0.00 | 0.00 | 0.00 | 48 | 1020.6 |
| 20260510130412 | 10 | 348 | 4.8 | 6.4 | 0.00 | 0.00 | 0.00 | 48 | 1020.6 |
| 20260510125908 | 9 | 355 | 3.2 | 3.2 | 0.00 | 0.00 | 0.00 | 49 | 1020.7 |
| 20260510125404 | 9 | 340 | 4.8 | 4.8 | 0.00 | 0.00 | 0.00 | 51 | 1020.6 |
| 20260510124901 | 9 | 352 | 4.8 | 4.8 | 0.00 | 0.00 | 0.00 | 51 | 1020.4 |
| 20260510124358 | 8 | 334 | 3.2 | 3.2 | 0.00 | 0.00 | 0.00 | 53 | 1020.3 |
| 20260510123854 | 8 | 357 | 3.2 | 3.2 | 0.00 | 0.00 | 0.00 | 54 | 1020.2 |
| 20260510123349 | 8 | 20 | 8.0 | 9.7 | 0.00 | 0.00 | 0.00 | 54 | 1020.2 |
| 20260510122846 | 8 | 8 | 3.2 | 4.8 | 0.00 | 0.00 | 0.00 | 54 | 1020.2 |
| 20260510122341 | 7 | 345 | 4.8 | 6.4 | 0.00 | 0.00 | 0.00 | 55 | 1020.0 |
| 20260510121838 | 7 | 355 | 6.4 | 6.4 | 0.00 | 0.00 | 0.00 | 56 | 1019.9 |
| 20260510121336 | 7 | 340 | 3.2 | 3.2 | 0.00 | 0.00 | 0.00 | 58 | 1019.7 |
| 20260510120833 | 7 | 2 | 3.2 | 4.8 | 0.00 | 0.00 | 0.00 | 58 | 1019.8 |
| 20260510120330 | 6 | 340 | 3.2 | 4.8 | 0.00 | 0.00 | 0.00 | 59 | 1019.6 |
| 20260510115825 | 6 | 326 | 3.2 | 4.8 | 0.00 | 0.00 | 0.00 | 60 | 1019.6 |
| 20260510115323 | 6 | 7 | 3.2 | 4.8 | 0.00 | 0.00 | 0.00 | 61 | 1019.3 |
| 20260510114819 | 6 | 338 | 3.2 | 3.2 | 0.00 | 0.00 | 0.00 | 62 | 1019.3 |
| 20260510114316 | 6 | 329 | 1.6 | 1.6 | 0.00 | 0.00 | 0.00 | 63 | 1019.4 |
| 20260510113811 | 5 | 338 | 1.6 | 1.6 | 0.00 | 0.00 | 0.00 | 65 | 1019.5 |
| 20260510113308 | 5 | 350 | 3.2 | 3.2 | 0.00 | 0.00 | 0.00 | 66 | 1019.4 |
| 20260510112805 | 5 | 339 | 1.6 | 1.6 | 0.00 | 0.00 | 0.00 | 67 | 1019.1 |
| 20260510112305 | 5 | 346 | 1.6 | 1.6 | 0.00 | 0.00 | 0.00 | 67 | 1019.1 |
| 20260510111757 | 5 | 322 | 1.6 | 3.2 | 0.00 | 0.00 | 0.00 | 68 | 1019.3 |
| 20260510111254 | 5 | 342 | 1.6 | 3.2 | 0.00 | 0.00 | 0.00 | 69 | 1019.0 |
| 20260510110753 | 5 | 322 | 1.6 | 1.6 | 0.00 | 0.00 | 0.00 | 70 | 1019.1 |
| 20260510110252 | 5 | 315 | 1.6 | 3.2 | 0.00 | 0.00 | 0.00 | 70 | 1018.9 |
| 20260510105752 | 4 | 327 | 1.6 | 1.6 | 0.00 | 0.00 | 0.00 | 70 | 1018.9 |
| 20260510105246 | 4 | 322 | 3.2 | 3.2 | 0.00 | 0.00 | 0.00 | 71 | 1019.0 |
| 20260510104743 | 4 | 336 | 3.2 | 3.2 | 0.00 | 0.00 | 0.00 | 72 | 1018.7 |
| 20260510104241 | 4 | 336 | 3.2 | 3.2 | 0.00 | 0.00 | 0.00 | 73 | 1018.7 |
| 20260510103737 | 4 | 346 | 3.2 | 3.2 | 0.00 | 0.00 | 0.00 | 74 | 1018.6 |
| 20260510103234 | 4 | 338 | 3.2 | 3.2 | 0.00 | 0.00 | 0.00 | 74 | 1018.6 |
| 20260510102734 | 4 | 340 | 3.2 | 3.2 | 0.00 | 0.00 | 0.00 | 74 | 1018.4 |
| 20260510102230 | 4 | 335 | 3.2 | 3.2 | 0.00 | 0.00 | 0.00 | 74 | 1018.3 |
| 20260510101728 | 4 | 338 | 4.8 | 4.8 | 0.00 | 0.00 | 0.00 | 75 | 1018.2 |
| 20260510101226 | 4 | 337 | 3.2 | 3.2 | 0.00 | 0.00 | 0.00 | 76 | 1018.3 |
| 20260510100721 | 4 | 319 | 3.2 | 3.2 | 0.00 | 0.00 | 0.00 | 77 | 1018.1 |
| 20260510100220 | 3 | 336 | 3.2 | 3.2 | 0.00 | 0.00 | 0.00 | 81 | 1018.2 |
| 20260510095715 | 4 | 346 | 4.8 | 4.8 | 0.00 | 0.00 | 0.00 | 82 | 1018.3 |
| 20260510095211 | 4 | 336 | 0.0 | 1.6 | 0.00 | 0.00 | 0.00 | 82 | 1018.2 |
| 20260510094709 | 4 | 335 | 1.6 | 1.6 | 0.00 | 0.00 | 0.00 | 81 | 1018.0 |
| 20260510094205 | 4 | 336 | 1.6 | 1.6 | 0.00 | 0.00 | 0.00 | 81 | 1018.0 |
| 20260510093700 | 4 | 331 | 0.0 | 0.0 | 0.00 | 0.00 | 0.00 | 80 | 1018.0 |
| 20260510093158 | 5 | 330 | 0.0 | 0.0 | 0.00 | 0.00 | 0.00 | 80 | 1018.0 |
| 20260510092654 | 5 | 330 | 0.0 | 0.0 | 0.00 | 0.00 | 0.00 | 78 | 1017.8 |
| 20260510092150 | 5 | 329 | 0.0 | 0.0 | 0.00 | 0.00 | 0.00 | 76 | 1017.8 |
| 20260510091646 | 5 | 330 | 0.0 | 1.6 | 0.00 | 0.00 | 0.00 | 74 | 1017.8 |
| 20260510091142 | 5 | 336 | 1.6 | 1.6 | 0.00 | 0.00 | 0.00 | 70 | 1017.8 |
| 20260510090639 | 6 | 341 | 1.6 | 1.6 | 0.00 | 0.00 | 0.00 | 68 | 1017.8 |
| 20260510090136 | 6 | 340 | 1.6 | 3.2 | 0.00 | 0.00 | 0.00 | 67 | 1017.9 |
| 20260510085631 | 6 | 335 | 0.0 | 0.0 | 0.00 | 0.00 | 0.00 | 66 | 1017.7 |
| 20260510085126 | 6 | 324 | 0.0 | 0.0 | 0.00 | 0.00 | 0.00 | 65 | 1017.8 |
| 20260510084623 | 6 | 319 | 0.0 | 0.0 | 0.00 | 0.00 | 0.00 | 64 | 1017.8 |
| 20260510084121 | 6 | 318 | 0.0 | 0.0 | 0.00 | 0.00 | 0.00 | 62 | 1017.8 |
| 20260510083616 | 6 | 320 | 0.0 | 0.0 | 0.00 | 0.00 | 0.00 | 62 | 1017.7 |
| 20260510083113 | 7 | 323 | 0.0 | 0.0 | 0.00 | 0.00 | 0.00 | 62 | 1017.3 |
| 20260510082609 | 7 | 319 | 1.6 | 1.6 | 0.00 | 0.00 | 0.00 | 62 | 1017.1 |
| 20260510082105 | 7 | 316 | 1.6 | 1.6 | 0.00 | 0.00 | 0.00 | 62 | 1017.2 |
| 20260510081600 | 7 | 316 | 3.2 | 3.2 | 0.00 | 0.00 | 0.00 | 62 | 1016.9 |
| 20260510081056 | 7 | 313 | 1.6 | 1.6 | 0.00 | 0.00 | 0.00 | 61 | 1016.9 |
| 20260510080555 | 7 | 320 | 3.2 | 3.2 | 0.00 | 0.00 | 0.00 | 60 | 1016.8 |
| 20260510080052 | 7 | 321 | 1.6 | 1.6 | 0.00 | 0.00 | 0.00 | 59 | 1016.7 |
| 20260510075550 | 7 | 323 | 1.6 | 3.2 | 0.00 | 0.00 | 0.00 | 60 | 1016.8 |
| 20260510075046 | 7 | 323 | 3.2 | 3.2 | 0.00 | 0.00 | 0.00 | 60 | 1016.7 |
| 20260510074544 | 7 | 315 | 3.2 | 3.2 | 0.00 | 0.00 | 0.00 | 60 | 1016.8 |
| 20260510074039 | 7 | 0 | 0.0 | 0.0 | 0.00 | 0.00 | 0.00 | 60 | 1016.4 |
| 20260510073535 | 7 | 335 | 3.2 | 4.8 | 0.00 | 0.00 | 0.00 | 59 | 1016.3 |
| 20260510073033 | 7 | 320 | 3.2 | 3.2 | 0.00 | 0.00 | 0.00 | 60 | 1016.5 |
| 20260510072529 | 7 | 333 | 3.2 | 4.8 | 0.00 | 0.00 | 0.00 | 59 | 1016.5 |
| 20260510072025 | 7 | 342 | 3.2 | 3.2 | 0.00 | 0.00 | 0.00 | 60 | 1016.3 |
| 20260510071521 | 7 | 331 | 3.2 | 3.2 | 0.00 | 0.00 | 0.00 | 59 | 1016.3 |
| 20260510071020 | 7 | 336 | 3.2 | 4.8 | 0.00 | 0.00 | 0.00 | 58 | 1016.3 |
| 20260510070516 | 8 | 350 | 4.8 | 4.8 | 0.00 | 0.00 | 0.00 | 58 | 1016.2 |
| 20260510070013 | 8 | 331 | 4.8 | 4.8 | 0.00 | 0.00 | 0.00 | 57 | 1016.2 |
| 20260510065509 | 8 | 319 | 3.2 | 3.2 | 0.00 | 0.00 | 0.00 | 56 | 1016.4 |
| 20260510065005 | 8 | 330 | 4.8 | 4.8 | 0.00 | 0.00 | 0.00 | 57 | 1016.2 |
| 20260510064502 | 8 | 325 | 4.8 | 4.8 | 0.00 | 0.00 | 0.00 | 56 | 1016.0 |
| 20260510063959 | 8 | 310 | 4.8 | 4.8 | 0.00 | 0.00 | 0.00 | 56 | 1016.2 |
| 20260510063455 | 8 | 337 | 1.6 | 1.6 | 0.00 | 0.00 | 0.00 | 57 | 1016.1 |
| 20260510062953 | 8 | 342 | 3.2 | 3.2 | 0.00 | 0.00 | 0.00 | 56 | 1015.9 |
| 20260510062448 | 8 | 353 | 3.2 | 3.2 | 0.00 | 0.00 | 0.00 | 56 | 1015.9 |
| 20260510061943 | 8 | 334 | 4.8 | 4.8 | 0.00 | 0.00 | 0.00 | 56 | 1015.9 |
| 20260510061441 | 8 | 342 | 3.2 | 3.2 | 0.00 | 0.00 | 0.00 | 56 | 1015.8 |
| 20260510060937 | 8 | 332 | 3.2 | 4.8 | 0.00 | 0.00 | 0.00 | 56 | 1015.8 |
| 20260510060434 | 8 | 355 | 3.2 | 4.8 | 0.00 | 0.00 | 0.00 | 56 | 1015.7 |
| 20260510055930 | 8 | 346 | 1.6 | 1.6 | 0.00 | 0.00 | 0.00 | 57 | 1015.7 |
| 20260510055426 | 8 | 343 | 3.2 | 3.2 | 0.00 | 0.00 | 0.00 | 55 | 1015.6 |
| 20260510054924 | 8 | 340 | 4.8 | 6.4 | 0.00 | 0.00 | 0.00 | 53 | 1015.7 |
| 20260510054419 | 9 | 321 | 0.0 | 1.6 | 0.00 | 0.00 | 0.00 | 53 | 1015.7 |
| 20260510053914 | 9 | 323 | 3.2 | 3.2 | 0.00 | 0.00 | 0.00 | 52 | 1015.6 |
| 20260510053411 | 10 | 306 | 3.2 | 3.2 | 0.00 | 0.00 | 0.00 | 51 | 1015.6 |
| 20260510052907 | 10 | 345 | 3.2 | 3.2 | 0.00 | 0.00 | 0.00 | 51 | 1015.5 |
| 20260510052403 | 10 | 316 | 1.6 | 1.6 | 0.00 | 0.00 | 0.00 | 52 | 1015.3 |
| 20260510051859 | 10 | 334 | 1.6 | 1.6 | 0.00 | 0.00 | 0.00 | 52 | 1015.1 |
| 20260510051355 | 10 | 347 | 3.2 | 3.2 | 0.00 | 0.00 | 0.00 | 51 | 1015.0 |
| 20260510050852 | 10 | 343 | 1.6 | 3.2 | 0.00 | 0.00 | 0.00 | 51 | 1015.0 |
| 20260510050349 | 10 | 334 | 3.2 | 3.2 | 0.00 | 0.00 | 0.00 | 50 | 1014.9 |
| 20260510045846 | 10 | 322 | 3.2 | 4.8 | 0.00 | 0.00 | 0.00 | 49 | 1014.7 |
| 20260510045343 | 10 | 346 | 3.2 | 3.2 | 0.00 | 0.00 | 0.00 | 47 | 1014.8 |
| 20260510044840 | 11 | 323 | 1.6 | 3.2 | 0.00 | 0.00 | 0.00 | 47 | 1014.7 |
| 20260510044337 | 11 | 322 | 3.2 | 3.2 | 0.00 | 0.00 | 0.00 | 46 | 1014.7 |
| 20260510043833 | 11 | 341 | 3.2 | 3.2 | 0.00 | 0.00 | 0.00 | 45 | 1014.6 |
| 20260510043329 | 11 | 328 | 3.2 | 3.2 | 0.00 | 0.00 | 0.00 | 45 | 1014.7 |
| 20260510042827 | 11 | 331 | 3.2 | 4.8 | 0.00 | 0.00 | 0.00 | 44 | 1014.5 |
| 20260510042323 | 11 | 324 | 3.2 | 4.8 | 0.00 | 0.00 | 0.00 | 44 | 1014.4 |
| 20260510041819 | 11 | 322 | 4.8 | 4.8 | 0.00 | 0.00 | 0.00 | 44 | 1014.4 |
| 20260510041317 | 11 | 338 | 4.8 | 4.8 | 0.00 | 0.00 | 0.00 | 43 | 1014.3 |
| 20260510040814 | 12 | 324 | 3.2 | 3.2 | 0.00 | 0.00 | 0.00 | 43 | 1014.2 |
| 20260510040310 | 12 | 330 | 3.2 | 3.2 | 0.00 | 0.00 | 0.00 | 42 | 1014.2 |
| 20260510035806 | 12 | 330 | 6.4 | 6.4 | 0.00 | 0.00 | 0.00 | 42 | 1014.1 |
| 20260510035306 | 12 | 340 | 4.8 | 4.8 | 0.00 | 0.00 | 0.00 | 42 | 1013.9 |
| 20260510034758 | 12 | 356 | 6.4 | 6.4 | 0.00 | 0.00 | 0.00 | 41 | 1013.7 |
| 20260510034256 | 12 | 339 | 6.4 | 6.4 | 0.00 | 0.00 | 0.00 | 41 | 1013.7 |
| 20260510033752 | 12 | 327 | 4.8 | 6.4 | 0.00 | 0.00 | 0.00 | 41 | 1013.7 |
| 20260510033250 | 12 | 307 | 6.4 | 6.4 | 0.00 | 0.00 | 0.00 | 41 | 1013.5 |
| 20260510032746 | 12 | 354 | 4.8 | 4.8 | 0.00 | 0.00 | 0.00 | 41 | 1013.5 |
| 20260510032242 | 13 | 341 | 3.2 | 3.2 | 0.00 | 0.00 | 0.00 | 41 | 1013.4 |
| 20260510031737 | 13 | 332 | 3.2 | 3.2 | 0.00 | 0.00 | 0.00 | 40 | 1013.3 |
| 20260510031233 | 13 | 340 | 3.2 | 4.8 | 0.00 | 0.00 | 0.00 | 40 | 1013.1 |
| 20260510030733 | 13 | 324 | 4.8 | 4.8 | 0.00 | 0.00 | 0.00 | 40 | 1013.3 |
| 20260510030231 | 13 | 352 | 4.8 | 4.8 | 0.00 | 0.00 | 0.00 | 39 | 1013.0 |
| 20260510025728 | 13 | 319 | 6.4 | 6.4 | 0.00 | 0.00 | 0.00 | 40 | 1012.9 |
| 20260510025225 | 13 | 316 | 4.8 | 6.4 | 0.00 | 0.00 | 0.00 | 40 | 1013.0 |
| 20260510024722 | 14 | 313 | 4.8 | 4.8 | 0.00 | 0.00 | 0.00 | 39 | 1012.8 |
| 20260510024219 | 14 | 319 | 4.8 | 4.8 | 0.00 | 0.00 | 0.00 | 39 | 1012.8 |
| 20260510023714 | 15 | 330 | 6.4 | 6.4 | 0.00 | 0.00 | 0.00 | 38 | 1012.7 |
| 20260510023211 | 15 | 314 | 6.4 | 6.4 | 0.00 | 0.00 | 0.00 | 38 | 1012.5 |
| 20260510022707 | 15 | 284 | 4.8 | 6.4 | 0.00 | 0.00 | 0.00 | 38 | 1012.6 |
| 20260510022202 | 15 | 338 | 4.8 | 4.8 | 0.00 | 0.00 | 0.00 | 38 | 1012.4 |
| 20260510021657 | 15 | 337 | 6.4 | 9.7 | 0.00 | 0.00 | 0.00 | 37 | 1012.3 |
| 20260510021155 | 15 | 354 | 6.4 | 6.4 | 0.00 | 0.00 | 0.00 | 38 | 1012.3 |
| 20260510020650 | 15 | 336 | 4.8 | 4.8 | 0.00 | 0.00 | 0.00 | 38 | 1012.1 |
| 20260510020145 | 15 | 331 | 4.8 | 4.8 | 0.00 | 0.00 | 0.00 | 38 | 1011.8 |
| 20260510015641 | 15 | 320 | 3.2 | 4.8 | 0.00 | 0.00 | 0.00 | 38 | 1011.7 |
| 20260510015138 | 16 | 341 | 6.4 | 6.4 | 0.00 | 0.00 | 0.00 | 37 | 1011.7 |
| 20260510014638 | 16 | 337 | 6.4 | 6.4 | 0.00 | 0.00 | 0.00 | 37 | 1011.5 |
| 20260510014136 | 16 | 327 | 8.0 | 9.7 | 0.00 | 0.00 | 0.00 | 36 | 1011.4 |
| 20260510013631 | 16 | 311 | 6.4 | 6.4 | 0.00 | 0.00 | 0.00 | 36 | 1011.2 |
| 20260510013127 | 16 | 348 | 6.4 | 6.4 | 0.00 | 0.00 | 0.00 | 36 | 1011.2 |
| 20260510012626 | 16 | 309 | 4.8 | 4.8 | 0.00 | 0.00 | 0.00 | 35 | 1011.1 |
| 20260510012123 | 17 | 330 | 6.4 | 6.4 | 0.00 | 0.00 | 0.00 | 35 | 1010.8 |
| 20260510011622 | 17 | 330 | 8.0 | 11.3 | 0.00 | 0.00 | 0.00 | 35 | 1010.6 |
| 20260510011118 | 17 | 337 | 8.0 | 9.7 | 0.00 | 0.00 | 0.00 | 34 | 1010.5 |
| 20260510010615 | 17 | 330 | 6.4 | 6.4 | 0.00 | 0.00 | 0.00 | 34 | 1010.7 |
| 20260510010112 | 17 | 319 | 6.4 | 6.4 | 0.00 | 0.00 | 0.00 | 34 | 1010.4 |
| 20260510005607 | 17 | 326 | 6.4 | 9.7 | 0.00 | 0.00 | 0.00 | 33 | 1010.4 |
| 20260510005105 | 17 | 295 | 12.9 | 14.5 | 0.00 | 0.00 | 0.00 | 33 | 1010.4 |
| 20260510004603 | 18 | 310 | 9.7 | 11.3 | 0.00 | 0.00 | 0.00 | 33 | 1010.2 |
| 20260510004101 | 18 | 328 | 14.5 | 17.7 | 0.00 | 0.00 | 0.00 | 32 | 1010.4 |
| 20260510003557 | 18 | 285 | 9.7 | 14.5 | 0.00 | 0.00 | 0.00 | 32 | 1010.1 |
| 20260510003053 | 18 | 331 | 6.4 | 14.5 | 0.00 | 0.00 | 0.00 | 32 | 1010.0 |
| 20260510002548 | 18 | 301 | 14.5 | 16.1 | 0.00 | 0.00 | 0.00 | 32 | 1009.9 |
| 20260510002046 | 18 | 19 | 9.7 | 11.3 | 0.00 | 0.00 | 0.00 | 32 | 1009.8 |
| 20260510001542 | 19 | 314 | 9.7 | 12.9 | 0.00 | 0.00 | 0.00 | 31 | 1009.7 |
| 20260510001041 | 19 | 305 | 9.7 | 12.9 | 0.00 | 0.00 | 0.00 | 31 | 1009.6 |
| 20260510000537 | 19 | 331 | 17.7 | 24.1 | 0.00 | 0.00 | 0.00 | 31 | 1009.7 |
| 20260510000034 | 19 | 350 | 11.3 | 14.5 | 0.00 | 0.00 | 0.00 | 31 | 1009.6 |
| 20260509235530 | 20 | 329 | 14.5 | 20.9 | 0.00 | 0.00 | 0.00 | 31 | 1009.5 |
| 20260509235027 | 20 | 321 | 14.5 | 20.9 | 0.00 | 0.00 | 0.00 | 32 | 1009.4 |
| 20260509234523 | 20 | 5 | 14.5 | 16.1 | 0.00 | 0.00 | 0.00 | 32 | 1009.3 |
| 20260509234021 | 20 | 345 | 19.3 | 22.5 | 0.00 | 0.00 | 0.00 | 32 | 1009.2 |
| 20260509233518 | 20 | 342 | 12.9 | 16.1 | 0.00 | 0.00 | 0.00 | 32 | 1009.1 |
| 20260509233016 | 20 | 297 | 14.5 | 17.7 | 0.00 | 0.00 | 0.00 | 32 | 1009.2 |
| 20260509232512 | 20 | 230 | 9.7 | 12.9 | 0.00 | 0.00 | 0.00 | 33 | 1009.1 |
| 20260509232009 | 20 | 334 | 9.7 | 11.3 | 0.00 | 0.00 | 0.00 | 33 | 1009.0 |
| 20260509231505 | 20 | 328 | 17.7 | 24.1 | 0.00 | 0.00 | 0.00 | 31 | 1008.8 |
| 20260509231003 | 21 | 326 | 14.5 | 24.1 | 0.00 | 0.00 | 0.00 | 31 | 1008.8 |
| 20260509230459 | 20 | 329 | 11.3 | 12.9 | 0.00 | 0.00 | 0.00 | 32 | 1008.6 |
| 20260509225956 | 21 | 335 | 20.9 | 25.7 | 0.00 | 0.00 | 0.00 | 30 | 1008.5 |
| 20260509225452 | 21 | 284 | 19.3 | 24.1 | 0.00 | 0.00 | 0.00 | 30 | 1008.3 |
| 20260509224948 | 21 | 333 | 20.9 | 24.1 | 0.00 | 0.00 | 0.00 | 29 | 1008.5 |
| 20260509224443 | 21 | 288 | 16.1 | 22.5 | 0.00 | 0.00 | 0.00 | 30 | 1008.2 |
| 20260509223941 | 21 | 270 | 16.1 | 22.5 | 0.00 | 0.00 | 0.00 | 30 | 1008.2 |
| 20260509223437 | 21 | 203 | 9.7 | 16.1 | 0.00 | 0.00 | 0.00 | 30 | 1008.1 |
| 20260509222934 | 21 | 304 | 14.5 | 16.1 | 0.00 | 0.00 | 0.00 | 30 | 1008.0 |
| 20260509222429 | 21 | 309 | 17.7 | 24.1 | 0.00 | 0.00 | 0.00 | 29 | 1007.9 |
| 20260509221926 | 21 | 340 | 17.7 | 24.1 | 0.00 | 0.00 | 0.00 | 30 | 1007.9 |
| 20260509221423 | 21 | 319 | 14.5 | 20.9 | 0.00 | 0.00 | 0.00 | 30 | 1007.8 |
| 20260509220918 | 21 | 15 | 8.0 | 11.3 | 0.00 | 0.00 | 0.00 | 30 | 1007.6 |
| 20260509220415 | 21 | 289 | 17.7 | 24.1 | 0.00 | 0.00 | 0.00 | 29 | 1007.8 |
| 20260509215911 | 22 | 325 | 24.1 | 37.0 | 0.00 | 0.00 | 0.00 | 29 | 1007.7 |
| 20260509215406 | 22 | 316 | 14.5 | 22.5 | 0.00 | 0.00 | 0.00 | 30 | 1007.5 |
| 20260509214904 | 22 | 342 | 17.7 | 22.5 | 0.00 | 0.00 | 0.00 | 31 | 1007.6 |
| 20260509214401 | 22 | 310 | 14.5 | 17.7 | 0.00 | 0.00 | 0.00 | 31 | 1007.4 |
| 20260509213858 | 22 | 326 | 11.3 | 14.5 | 0.00 | 0.00 | 0.00 | 31 | 1007.6 |
| 20260509213359 | 22 | 304 | 14.5 | 17.7 | 0.00 | 0.00 | 0.00 | 31 | 1007.4 |
| 20260509212857 | 22 | 298 | 17.7 | 24.1 | 0.00 | 0.00 | 0.00 | 30 | 1007.4 |
| 20260509212354 | 22 | 285 | 16.1 | 20.9 | 0.00 | 0.00 | 0.00 | 29 | 1007.1 |
| 20260509211850 | 22 | 312 | 19.3 | 29.0 | 0.00 | 0.00 | 0.00 | 30 | 1007.3 |
| 20260509211341 | 22 | 309 | 16.1 | 17.7 | 0.00 | 0.00 | 0.00 | 31 | 1007.2 |
| 20260509210837 | 22 | 307 | 14.5 | 17.7 | 0.00 | 0.00 | 0.00 | 31 | 1007.2 |
| 20260509210335 | 22 | 348 | 12.9 | 16.1 | 0.00 | 0.00 | 0.00 | 33 | 1007.3 |
| 20260509205834 | 22 | 292 | 12.9 | 16.1 | 0.00 | 0.00 | 0.00 | 33 | 1007.3 |
| 20260509205329 | 22 | 333 | 11.3 | 16.1 | 0.00 | 0.00 | 0.00 | 34 | 1007.2 |
| 20260509204826 | 22 | 231 | 9.7 | 12.9 | 0.00 | 0.00 | 0.00 | 34 | 1007.1 |
| 20260509204322 | 22 | 330 | 8.0 | 11.3 | 0.00 | 0.00 | 0.00 | 34 | 1007.2 |
| 20260509203819 | 22 | 248 | 20.9 | 25.7 | 0.00 | 0.00 | 0.00 | 34 | 1007.3 |
| 20260509203315 | 22 | 311 | 8.0 | 11.3 | 0.00 | 0.00 | 0.00 | 37 | 1007.1 |
| 20260509202811 | 22 | 270 | 19.3 | 25.7 | 0.00 | 0.00 | 0.00 | 38 | 1007.2 |
| 20260509202308 | 22 | 307 | 17.7 | 27.4 | 0.00 | 0.00 | 0.00 | 38 | 1007.1 |
| 20260509201806 | 22 | 275 | 6.4 | 12.9 | 0.00 | 0.00 | 0.00 | 38 | 1007.3 |
| 20260509201259 | 21 | 304 | 12.9 | 17.7 | 0.00 | 0.00 | 0.00 | 39 | 1007.1 |
| 20260509200754 | 21 | 304 | 12.9 | 17.7 | 0.00 | 0.00 | 0.00 | 40 | 1007.3 |
| 20260509200250 | 21 | 277 | 14.5 | 17.7 | 0.00 | 0.00 | 0.00 | 40 | 1007.2 |
| 20260509195747 | 21 | 305 | 12.9 | 17.7 | 0.00 | 0.00 | 0.00 | 40 | 1007.3 |
| 20260509195242 | 21 | 246 | 14.5 | 17.7 | 0.00 | 0.00 | 0.00 | 40 | 1007.2 |
| 20260509194741 | 21 | 289 | 17.7 | 22.5 | 0.00 | 0.00 | 0.00 | 40 | 1007.0 |
| 20260509194238 | 21 | 9 | 9.7 | 12.9 | 0.00 | 0.00 | 0.00 | 39 | 1007.2 |
| 20260509193735 | 21 | 303 | 17.7 | 29.0 | 0.00 | 0.00 | 0.00 | 40 | 1007.3 |
| 20260509193235 | 21 | 328 | 14.5 | 17.7 | 0.00 | 0.00 | 0.00 | 40 | 1007.2 |
| 20260509192731 | 21 | 300 | 29.0 | 35.4 | 0.00 | 0.00 | 0.00 | 39 | 1007.2 |
| 20260509192226 | 21 | 73 | 12.9 | 24.1 | 0.00 | 0.00 | 0.00 | 39 | 1007.4 |
| 20260509191722 | 21 | 294 | 16.1 | 25.7 | 0.00 | 0.00 | 0.00 | 40 | 1006.9 |
| 20260509191219 | 21 | 297 | 16.1 | 20.9 | 0.00 | 0.00 | 0.00 | 39 | 1007.1 |
| 20260509190715 | 21 | 249 | 12.9 | 20.9 | 0.00 | 0.00 | 0.00 | 40 | 1007.1 |
| 20260509190212 | 21 | 303 | 14.5 | 29.0 | 0.00 | 0.00 | 0.00 | 40 | 1007.0 |
| 20260509185710 | 21 | 324 | 11.3 | 16.1 | 0.00 | 0.00 | 0.00 | 40 | 1007.0 |
| 20260509185205 | 22 | 297 | 11.3 | 20.9 | 0.00 | 0.00 | 0.00 | 39 | 1006.9 |
| 20260509184703 | 21 | 272 | 16.1 | 20.9 | 0.00 | 0.00 | 0.00 | 38 | 1006.7 |
| 20260509184200 | 21 | 280 | 14.5 | 17.7 | 0.00 | 0.00 | 0.00 | 38 | 1006.8 |
| 20260509183656 | 21 | 253 | 11.3 | 16.1 | 0.00 | 0.00 | 0.00 | 37 | 1006.8 |
| 20260509183151 | 21 | 322 | 9.7 | 12.9 | 0.00 | 0.00 | 0.00 | 37 | 1006.8 |
| 20260509182647 | 20 | 286 | 12.9 | 17.7 | 0.00 | 0.00 | 0.00 | 36 | 1006.8 |
| 20260509182145 | 20 | 278 | 16.1 | 20.9 | 0.00 | 0.00 | 0.00 | 36 | 1006.7 |
| 20260509181643 | 20 | 325 | 11.3 | 14.5 | 0.00 | 0.00 | 0.00 | 36 | 1006.5 |
| 20260509181140 | 20 | 5 | 16.1 | 17.7 | 0.00 | 0.00 | 0.00 | 34 | 1006.6 |
| 20260509180637 | 21 | 317 | 16.1 | 22.5 | 0.00 | 0.00 | 0.00 | 33 | 1006.5 |
| 20260509180133 | 20 | 291 | 11.3 | 12.9 | 0.00 | 0.00 | 0.00 | 33 | 1006.6 |
| 20260509175629 | 20 | 314 | 22.5 | 29.0 | 0.00 | 0.00 | 0.00 | 33 | 1006.5 |
| 20260509175126 | 20 | 303 | 8.0 | 14.5 | 0.00 | 0.00 | 0.00 | 32 | 1006.7 |
| 20260509174622 | 20 | 317 | 12.9 | 20.9 | 0.00 | 0.00 | 0.00 | 33 | 1006.5 |
| 20260509174117 | 20 | 310 | 19.3 | 22.5 | 0.00 | 0.00 | 0.00 | 33 | 1006.7 |
| 20260509173613 | 21 | 4 | 12.9 | 16.1 | 0.00 | 0.00 | 0.00 | 32 | 1006.6 |
| 20260509173104 | 21 | 4 | 19.3 | 24.1 | 0.00 | 0.00 | 0.00 | 32 | 1006.8 |
| 20260509172601 | 21 | 305 | 12.9 | 17.7 | 0.00 | 0.00 | 0.00 | 31 | 1006.9 |
| 20260509172057 | 21 | 309 | 20.9 | 22.5 | 0.00 | 0.00 | 0.00 | 31 | 1006.7 |
| 20260509171553 | 21 | 303 | 22.5 | 24.1 | 0.00 | 0.00 | 0.00 | 31 | 1006.6 |
| 20260509171049 | 21 | 317 | 16.1 | 20.9 | 0.00 | 0.00 | 0.00 | 30 | 1006.6 |
| 20260509170545 | 21 | 305 | 25.7 | 40.2 | 0.00 | 0.00 | 0.00 | 29 | 1006.7 |
| 20260509170041 | 22 | 316 | 19.3 | 29.0 | 0.00 | 0.00 | 0.00 | 29 | 1006.6 |
| 20260509165540 | 22 | 306 | 8.0 | 11.3 | 0.00 | 0.00 | 0.00 | 28 | 1006.5 |
| 20260509165035 | 21 | 290 | 9.7 | 12.9 | 0.00 | 0.00 | 0.00 | 28 | 1006.5 |
| 20260509164532 | 21 | 9 | 12.9 | 17.7 | 0.00 | 0.00 | 0.00 | 29 | 1006.5 |
| 20260509164027 | 21 | 303 | 11.3 | 12.9 | 0.00 | 0.00 | 0.00 | 30 | 1006.6 |
| 20260509163526 | 21 | 310 | 6.4 | 11.3 | 0.00 | 0.00 | 0.00 | 30 | 1006.5 |
| 20260509163026 | 21 | 301 | 9.7 | 12.9 | 0.00 | 0.00 | 0.00 | 30 | 1006.4 |
| 20260509162524 | 21 | 289 | 6.4 | 9.7 | 0.00 | 0.00 | 0.00 | 30 | 1006.5 |
| 20260509162019 | 21 | 340 | 11.3 | 22.5 | 0.00 | 0.00 | 0.00 | 30 | 1006.4 |
| 20260509161516 | 22 | 305 | 16.1 | 20.9 | 0.00 | 0.00 | 0.00 | 31 | 1006.4 |
| 20260509161016 | 21 | 323 | 9.7 | 11.3 | 0.00 | 0.00 | 0.00 | 30 | 1006.5 |
| 20260509160512 | 21 | 308 | 19.3 | 22.5 | 0.00 | 0.00 | 0.00 | 31 | 1006.6 |
| 20260509160008 | 21 | 338 | 11.3 | 16.1 | 0.00 | 0.00 | 0.00 | 31 | 1006.8 |
| 20260509155504 | 21 | 288 | 12.9 | 17.7 | 0.00 | 0.00 | 0.00 | 30 | 1006.6 |
| 20260509155000 | 20 | 304 | 22.5 | 27.4 | 0.00 | 0.00 | 0.00 | 32 | 1006.5 |